Location: Ida Center
(41.8662°N, 83.5713°W)
Time: 03:50:27
(UTC+00:00)

Cosmos 724 - Pass Details

Date: 17 November 2019
Orbit: 861 x 934 km, 65.6° (Epoch: 07 December)

Event Time Altitude Azimuth Distance (km) Brightness Sun altitude
Rises 23:45:05 0° 329° (NNW) 3,479 7.7 -17.3°
Reaches altitude 10° 23:47:36 10° 331° (NNW) 2,528 6.9 -17.8°
Maximum altitude 23:53:27 73° 56° (ENE) 904 4.1 -18.8°
Enters shadow 23:58:51 12° 141° (SE) 2,365 6.2 -19.8°
